STARLINK-30958, 58457

Orbit data source: Space-Track

STARLINK-30958, 58457 is a payload satellite owned by SpaceX/Seattle (US) in LEO that was launched on Tue, 28 Nov 2023 UTC via an FALCON 9 launch vehicle from the Air Force Eastern Test Range (AFETR). Payload-class satellites include a variety of spacecraft equipped with specific instruments for various scientific and technological missions. These include communications satellites like Starlink; space stations such as the ISS; scientific satellites like the Hubble; Earth observation satellites from companies like Planet Labs, Umbra, and HawkEye 360; GPS; miniature CubeSats for education and research; and military/defense satellites.

Loading next visibility...
Identifier
58457, 2023-183W
Orbit
LEO
Country
Flag of USUS
Related business
Manufacturer
SpaceX/Seattle
Mission
Operational Commercial Communications
Bus & Motor
STARLINK V2M, Unknown motor
Mass
730 kg wet, ~700 kg dry
Launch date (UTC)
2023-11-28 (3 years ago)
Launch vehicle
FALCON 9
Launch site
Air Force Eastern Test Range (AFETR)
Object type
Payload
Rocket body
Debris
Shape & HBR
Box + 2 Pan, 17.7 m
Radar Cross Section
33.884 m², Large (>1 m²)

Expand to show TLE details & history
Last TLE update: 2 days ago

TLE from 2 days ago
0 STARLINK-30958
1 58457U 23183W   26171.05463898  .00000185  00000-0  16259-4 0  9997
2 58457  43.0009 183.1785 0001233 273.8713  86.1997 15.27575570142393
Epoch: 2026-06-20T01:18Z
TLE epoch observation values (Epoch: 2026-06-20T01:18:40.807Z)
Latitude
-0.00008°
Longitude
-104.76638°
Altitude
482.782 km
Speed
7.626 km/s
True Right ascension
12h 12m 42s
True Declination
0° 00' 00"
Sunlit
Object was in daylight at epoch
Visualization orbit readout
Latitude
Unknown
Longitude
Unknown
Altitude
Unknown
Speed
Unknown
Apparent Right ascension
Unknown
Apparent Declination
Unknown
Sunlit
N/A
Visualization observer readout
Local Sidereal Time
21:30:23
Azimuth
Unknown
Elevation
Unknown
Doppler factor
Unknown
Orbital elements
Apogee altitude
485.854 km
Perigee altitude
484.161 km
Semi-major axis
6,863.144 km
Eccentricity
0.00012
Inclination
43.0009°
RAAN
183.1785°
Arg. of periapsis
273.8713°
True anomaly
86.2138°
Mean anomaly
86.1997°
Eccentric anomaly
86.20675°
Mean motion
3.81732 °/min
Orbital period
94.31 mins
BSTAR
0.000016259
Loading maneuver chart data...
Computing Atmospheric mass density...
Loading historical data...
Loading historical data...
Loading historical data...
Loading historical data...
Loading historical data...
Loading historical data...
Loading historical data...

Documentation

Showing up to 5 results
|